Location: Paddlesworth
(51.1000°N, 1.1333°E)
Time: 19:43:07
(UTC+00:00)

Cosmos 44 - Pass Details

Date: 11 May 2021
Orbit: 571 x 791 km, 65.1° (Epoch: 20 June)

Event Time Altitude Azimuth Distance (km) Brightness Sun altitude
Rises 21:40:41 0° 319° (NW) 3,298 8.6 -15.1°
Reaches altitude 10° 21:43:10 10° 321° (NW) 2,365 7.4 -15.3°
Maximum altitude 21:48:37 70° 46° (NE) 835 3.7 -15.7°
Enters shadow 21:51:59 23° 125° (SE) 1,592 4.6 -16.0°
